FOX-1A (AO-85)

Last updated on Fri Dec 19 2025 00:03:11 GMT+0000 (Coordinated Universal Time)

1 40967U 15058D 25352.58197153 .00003378 00000+0 31227-3 0 9999 2 40967 64.7751 119.7276 0134238 127.7490 233.5875 14.89708486 86655
UTC large
Height (km)
Speed (km/s)
/
Latitude / Longitude
Inclination (degrees)
Orbital Period (minutes)
Azimuth
Elevation
Range (km)
Doppler Factor

Next 0 passes for location: London (51.5072 / 0.1276)

Sorry there are no passes over London.